Lone Rock, WI

5:20 AM CST on November 21, 2019 (GMT -0600)
Tri-County Regional

Weather History for KLNR - October, 2019

Change the Weather History Date:

Monday, October 14, 2019

  Actual Average Record
Temperature  
Mean Temperature 41 °F -  
Max Temperature 52 °F 59 °F 78 °F (2000)
Min Temperature 30 °F 37 °F 25 °F (2006)
Degree Days  
Heating Degree Days 24    
Moisture  
Dew Point 33 °F    
Average Humidity 75    
Maximum Humidity 92    
Minimum Humidity 48    
Precipitation  
Precipitation 0.00 in - - ()
Sea Level Pressure  
Sea Level Pressure 30.02 in    
Wind  
Wind Speed 5 mph (WSW)    
Max Wind Speed 8 mph    
Max Gust Speed -    
Visibility 10 miles    
Events      
Averages and records for this station are not official NWS values.
T = Trace of Precipitation, MM = Missing Value Source: NWS Daily Summary

Daily Weather History Graph

Daily Weather History Graph

Search for Another Location

Airport or City:

Astronomy

Oct. 14, 2019 Rise Set
Actual Time 7:13 AM CDT 6:19 PM CDT
Civil Twilight 6:44 AM CDT 6:48 PM CDT
Nautical Twilight 6:11 AM CDT 7:21 PM CDT
Astronomical Twilight 5:38 AM CDT 7:54 PM CDT
Moon 7:09 PM CDT (10/14) 7:44 AM CDT (10/14)
Length of Visible Light 12h 04m
Length of Day
11h 06m
Full, 99% of the Moon is Illuminated
Oct 14
Full
Oct 21
Last Quarter
Oct 27
New
Nov 4
First Quarter
Nov 12
Full

Hourly Weather History & Observations

Time (CDT) Temp. Windchill Dew Point Humidity Pressure Visibility Wind Dir Wind Speed Gust Speed Precip Events Conditions
12:56 AM 36.0 °F 31.1 °F 32.0 °F 86% 29.96 in 10.0 mi West 5.8 mph - N/A   Clear
1:56 AM 36.0 °F 31.1 °F 32.0 °F 86% 29.98 in 10.0 mi WNW 5.8 mph - N/A   Clear
2:56 AM 34.0 °F 31.0 °F 30.9 °F 89% 29.98 in 10.0 mi West 3.5 mph - N/A   Clear
3:56 AM 35.1 °F 30.1 °F 30.9 °F 85% 29.99 in 10.0 mi West 5.8 mph - N/A   Clear
4:56 AM 34.0 °F 28.8 °F 30.9 °F 89% 30.00 in 10.0 mi West 5.8 mph - N/A   Clear
5:56 AM 34.0 °F 28.8 °F 30.9 °F 89% 30.02 in 10.0 mi West 5.8 mph - N/A   Clear
6:56 AM 30.9 °F - 28.9 °F 92% 30.04 in 10.0 mi Calm Calm - N/A   Clear
7:56 AM 32.0 °F - 30.0 °F 92% 30.06 in 10.0 mi Calm Calm - N/A   Clear
8:56 AM 36.0 °F 31.1 °F 32.0 °F 86% 30.08 in 10.0 mi West 5.8 mph - N/A   Clear
9:56 AM 39.9 °F 37.8 °F 34.0 °F 79% 30.08 in 10.0 mi Variable 3.5 mph - 0.00 in   Clear
10:56 AM 43.0 °F 38.8 °F 34.0 °F 71% 30.09 in 10.0 mi West 6.9 mph - N/A   Clear
11:56 AM 46.0 °F 44.8 °F 33.1 °F 61% 30.08 in 10.0 mi Variable 3.5 mph - N/A   Clear
12:56 PM 48.0 °F - 32.0 °F 54% 30.06 in 10.0 mi North - - N/A   Clear
1:56 PM 50.0 °F - 32.0 °F 50% 30.04 in 10.0 mi WNW 6.9 mph - N/A   Clear
2:56 PM 51.1 °F - 32.0 °F 48% 30.03 in 10.0 mi West 5.8 mph - N/A   Clear
3:56 PM 52.0 °F - 33.1 °F 49% 30.01 in 10.0 mi South 6.9 mph - N/A   Clear
4:56 PM 51.1 °F - 32.0 °F 48% 30.01 in 10.0 mi SSW 8.1 mph - N/A   Clear
5:56 PM 50.0 °F - 33.1 °F 52% 30.01 in 10.0 mi SSW 4.6 mph - N/A   Clear
6:56 PM 46.9 °F - 36.0 °F 66% 30.00 in 10.0 mi SSE 3.5 mph - N/A   Clear
7:56 PM 43.0 °F 41.3 °F 37.9 °F 82% 30.00 in 10.0 mi East 3.5 mph - N/A   Clear
8:56 PM 41.0 °F 38.0 °F 36.0 °F 82% 30.00 in 10.0 mi East 4.6 mph - N/A   Clear
9:56 PM 39.9 °F 37.8 °F 37.0 °F 89% 30.01 in 10.0 mi East 3.5 mph - N/A   Clear
10:56 PM 39.9 °F 37.8 °F 36.0 °F 86% 29.99 in 10.0 mi East 3.5 mph - N/A   Clear
11:56 PM 39.0 °F - 36.0 °F 89% 30.01 in 10.0 mi Calm Calm - N/A   Clear